User: anonymous   Login
Location: Chuathbaluk
(61.5726°N, 159.2454°W)
Time: 15:49:22
(UTC+00:00)
Language:

Courier 1B - Orbit

View from above orbital plane
View from above orbital plane
View from above satellite
View from above satellite

Ground track
Ground track

The orbit data is extracted from the following two-line orbital elements,

1    58U 60013A   20330.77487941  .00000098  00000-0  19317-4 0  9990
2    58  28.3299 356.2046 0164999 324.9004  34.0765 13.46324159960901
Epoch (UTC): 25 November 2020 18:35:49
Eccentricity: 0.0164999
inclination: 28.3299°
perigee height: 962 km
apogee height: 1209 km
right ascension of ascending node: 356.2046°
argument of perigee: 324.9004°
revolutions per day: 13.46324159
mean anomaly at epoch: 34.0765°
orbit number at epoch: 96090

The dashed part of the orbit path shows where the satellite is in the earth's shadow,  

DLR